• Processing (Info)

  • MPEC 2006-D06 : COMET P/2005 YQ127 (LINEAR)

    The following Minor Planet Electronic Circular may be linked-to from your own Web pages, but must not otherwise be redistributed electronically.

    A form allowing access to any MPEC is at the bottom of this page.


    Read MPEC 2006-D05 Read MPEC 2006-D07


    M.P.E.C. 2006-D06                                Issued 2006 Feb. 18, 15:01 UT
    
         The Minor Planet Electronic Circulars contain information on unusual
             minor planets and routine data on comets.  They are published
       on behalf of Commission 20 of the International Astronomical Union by the
              Minor Planet Center, Smithsonian Astrophysical Observatory,
                              Cambridge, MA 02138, U.S.A.
    
                      Supported in part by the Brinson Foundation
                      Supported in part by the TABASGO Foundation
                 Prepared using the Tamkin Foundation Computer Network
    
                                  MPC@CFA.HARVARD.EDU
              URL http://cfa-www.harvard.edu/iau/mpc.html  ISSN 1523-6714
    
                              COMET P/2005 YQ127 (LINEAR)
    
    Observations:
        PK05YC7Q  C2005 09 15.42064 05 07 11.85 +38 17 08.2          19.0 N ED006704
        PK05YC7Q  C2005 09 15.43293 05 07 13.34 +38 17 08.5          19.9 N ED006704
        PK05YC7Q  C2005 09 15.46977 05 07 18.00 +38 17 14.8          19.4 N ED006704
        PK05YC7Q  C2005 11 03.44265 06 19 49.41 +36 14 21.1          18.5 N ED006704
        PK05YC7Q  C2005 11 03.45465 06 19 49.89 +36 14 18.1          19.5 N ED006704
        PK05YC7Q  C2005 11 03.46663 06 19 50.37 +36 14 12.2          19.3 N ED006704
        PK05YC7Q  C2006 02 05.48644 05 49 01.41 +17 41 42.3                 ED006349
        PK05YC7Q  C2006 02 05.49253 05 49 01.54 +17 41 39.2                 ED006349
        PK05YC7Q  C2006 02 05.49810 05 49 01.65 +17 41 36.6          17.4 T ED006349
        PK05YC7Q  C2006 02 13.87941 05 53 24.30 +16 42 07.5          18.3 N ED006213
        PK05YC7Q  C2006 02 13.88096 05 53 24.35 +16 42 06.7          18.3 N ED006213
        PK05YC7Q  C2006 02 13.88484 05 53 24.52 +16 42 05.3          18.3 N ED006213
        PK05YC7Q  C2006 02 16.88859 05 55 26.62 +16 23 34.2          18.5 N ED006213
        PK05YC7Q  C2006 02 16.89103 05 55 26.72 +16 23 33.4          18.5 N ED006213
        PK05YC7Q  C2006 02 16.90161 05 55 27.06 +16 23 28.8          18.5 N ED006213
    
    Observer details:
    213 Observatorio Montcabre.  Observer R. Naves.  Measurer M. Campas.  0.30-m
        f/10 Schmidt-Cassegrain + CCD.
    349 Ageo.  Observer K. Kadota.  0.25-m f/5.0 reflector + CCD.
    704 Lincoln Laboratory ETS, New Mexico.  Observers M. Bezpalko, L. Manguso,
        D. Torres, R. Kracke, A. Milner, H. Love.  Measurers J. Stuart, R. Sayer,
        J. Evans, J. Kommers.  1.0-m f/2.15 reflector + CCD.
    
    Orbital elements:
        P/2005 YQ127 (LINEAR)
    Epoch 2005 Nov. 6.0 TT = JDT 2453680.5
    T 2005 Nov. 3.95314 TT                                  MPC
    q   1.9190477            (2000.0)            P               Q
    n   0.12961974     Peri.  152.30118     +0.34405117     -0.89433612
    a   3.8668319      Node   276.37785     +0.79947568     +0.43875845
    e   0.5037158      Incl.   16.72471     +0.49240982     -0.08748674
    P   7.60
    Residuals in seconds of arc
    050915 704  0.0   0.1-    060105 704  0.2+  0.1-    060118 349  0.4-  0.7+
    050915 704  0.5-  1.2-    060106 160  0.8-  1.0+    060119 104  0.2-  0.5+
    050915 704  0.5+  0.9+    060106 A57  0.3-  0.5+    060119 473  1.3-  0.2+
    051103 704  0.8-  0.1+    060106 A57  0.1-  0.6+    060119 104  0.0   0.4+
    051103 704  0.2+  1.9+    060106 A57  0.7-  1.1+    060119 104  0.0   0.5+
    051103 704  1.3+  0.9+    060106 A57  0.5-  0.5+    060119 215  0.8-  1.2-
    051205 704  0.3+  0.3-    060109 A30  0.4+  0.3-    060119 215  0.7-  1.0-
    051205 704  0.2+  0.7-    060109 A30  0.6+  0.1-    060119 215  0.9-  0.8-
    051205 704  0.3+  0.5-    060109 A30  0.6+  0.3+    060122 D88  0.4-  0.2+
    051205 704  0.1+  0.9-    060109 A48  0.0   0.2-    060122 D88  0.4+  0.4-
    051205 704  0.3+  0.3-    060109 A48  0.8+  0.7+    060122 D88  0.6+  0.4-
    051210 691  0.1-  0.3-    060109 A48  0.4+  0.4+    060122 349  0.3+  0.1-
    051210 691  0.8+  1.8-    060109 A48  0.3+  0.2+    060122 349  0.9+  0.6-
    051210 691  0.0   0.6-    060109 A57  0.6+  0.6+    060122 349  0.9+  0.0
    051228 704  1.7-  1.2+    060109 A57  0.6-  0.5-    060122 473  0.4+  0.7+
    051228 704  0.2-  0.1+    060109 560  0.3-  0.5+    060122 473  0.2-  0.7+
    051228 704  0.4-  0.7-    060109 A57  0.5-  0.6+    060122 473  0.3+  1.6+
    051228 704  0.4-  0.2-    060109 A57  0.8+  0.3+    060122 130  0.0   0.4+
    051228 704  1.0-  1.2+    060109 560  0.2-  0.8+    060122 130  0.2-  0.0
    051229 704  0.2+  0.2+    060109 560  0.3-  0.9+    060122 130  0.0   0.0
    051229 704  0.3+  0.9-    060109 147  0.1-  0.6+    060122 130  0.1-  0.1+
    051229 704  0.1+  1.1-    060109 A57 (0.5-  2.0+)   060122 A30  0.3+  0.1-
    051229 704  0.2+  0.5-    060109 147  0.2-  0.1-    060122 A30  0.1+  0.1-
    051229 704  0.6-  1.8-    060109 A57  1.2-  0.6-    060122 A30  0.3-  0.2+
    051230 704  0.3+  1.3-    060109 A57  0.4-  0.2+    060122 A30  0.3-  0.2+
    051230 704  0.4+  1.0-    060109 A57  0.4+  0.2-    060123 704  0.9+  0.8+
    051230 704  1.0+  1.2-    060109 203  0.4-  0.2+    060123 704  1.2+  1.0-
    051230 704  0.8+  1.7-    060110 203  0.0   0.1+    060123 704  0.4+  0.5-
    051230 704  0.4+  1.8-    060110 204  0.2+  0.4+    060123 704  1.7+  1.6-
    051231 691  0.5-  0.5+    060110 204  0.3+  0.0     060123 349  0.4-  0.3+
    051231 691  0.3-  0.4+    060110 204  0.1-  0.1+    060123 349  0.4-  0.6+
    051231 691  0.8+  0.1-    060110 H06  0.2-  0.1-    060123 349  1.0-  0.6+
    051231 704  0.5+  0.6+    060110 H06  0.1-  0.1-    060126 H45  0.2-  0.4-
    051231 704  0.0   0.6-    060110 H06  0.2+  0.6-    060126 H45  1.5+  0.4-
    051231 704  0.3+  0.3-    060110 A48  0.8-  0.4+    060126 H45  0.3-  0.1-
    051231 704  0.2-  0.4+    060110 A48  1.1-  0.6+    060128 D88  0.8-  1.1+
    051231 704 (1.2-  3.7+)   060110 A48  1.0-  0.5+    060128 D88  0.1+  0.0
    051231 704 (2.9-  0.4+)   060110 A48  0.6-  0.5+    060128 D88  0.6-  0.8+
    051231 704  0.2+  0.8-    060111 673  0.4-  0.4+    060128 349 (2.1+  0.2+)
    051231 704  0.0   1.0-    060111 673  1.1-  0.8+    060128 349  2.0+  0.1+
    051231 704  0.2-  0.8-    060111 673  0.6-  0.3+    060128 349  1.9+  0.2+
    060102 704  0.0   0.3+    060111 673  0.1-  0.4+    060204 704  0.5+  0.3-
    060102 704  0.6+  0.1-    060111 160  0.9-  0.7+    060204 704  0.1-  0.2-
    060102 704  1.0+  0.2-    060111 160  0.6-  0.0     060204 704  0.4+  0.8-
    060102 704  0.2+  0.2-    060111 160  0.2-  0.1+    060204 704  0.7+  0.3-
    060102 704 (2.9+  0.2+)   060111 160  0.9-  0.4+    060204 704  0.1+  0.5-
    060104 H45  0.2+  0.3-    060111 160  0.3+  0.2-    060205 349  1.4+  1.3-
    060104 H45  0.8-  0.2+    060111 160  0.6-  0.8+    060205 349  1.4+  1.6-
    060104 H45  0.4+  0.4+    060114 204  0.7-  0.0     060205 349  1.2+  1.5-
    060104 H45  0.1+  0.7+    060115 204  0.5+  0.4+    060213 213  0.1-  0.2-
    060104 H45  0.1+  0.0     060116 A80  0.2+  0.9+    060213 213  0.2-  0.4-
    060105 704  0.7+  0.3+    060116 A80  0.4-  0.6+    060213 213  0.2+  0.3-
    060105 704 (5.2+  0.0 )   060116 A80  0.1+  0.5+    060216 213  0.1-  0.4-
    060105 704  0.7+  1.4-    060118 349  0.1+  1.3+    060216 213  0.1-  0.3-
    060105 704  0.4+  0.5-    060118 349  0.0   0.9+    060216 213  1.5-  1.1-
    
    Brian G. Marsden             (C) Copyright 2006 MPC           M.P.E.C. 2006-D06
    

    Read MPEC 2006-D05 Read MPEC 2006-D07


    MPEC number:

    Enter an MPEC number in one of the following forms:

    • 1997-B01 (the full form)
    • J97B01 (the packed version of the full form)
    • B01 (the abbreviated form)